TimeCST,TemperatureF,Dew PointF,Humidity,Sea Level PressureIn,VisibilityMPH,Wind Direction,Wind SpeedMPH,Gust SpeedMPH,PrecipitationIn,Events,Conditions,WindDirDegrees,DateUTC
12:53 AM,23.0,18.0,81,30.38,10.0,NNE,9.2,-,N/A,,Clear,20,2013-01-15 06:53:00
1:53 AM,21.9,17.1,82,30.38,10.0,NNE,8.1,-,N/A,,Clear,20,2013-01-15 07:53:00
2:53 AM,21.9,18.0,85,30.36,10.0,NNE,11.5,-,N/A,,Clear,20,2013-01-15 08:53:00
3:53 AM,21.9,18.0,85,30.35,10.0,NNE,9.2,-,N/A,,Clear,20,2013-01-15 09:53:00
4:53 AM,21.2,17.6,86,30.32,10.0,NNE,8.1,-,N/A,,Clear,20,2013-01-15 10:53:00
5:53 AM,21.9,18.0,85,30.32,10.0,NNE,11.5,-,N/A,,Clear,20,2013-01-15 11:53:00
6:53 AM,21.9,18.0,85,30.34,10.0,NNE,9.2,-,N/A,,Clear,20,2013-01-15 12:53:00
7:53 AM,23.0,18.0,81,30.33,9.0,NNE,11.5,-,N/A,,Clear,20,2013-01-15 13:53:00
8:53 AM,25.0,19.0,78,30.34,9.0,NE,10.4,-,N/A,,Clear,40,2013-01-15 14:53:00
9:53 AM,28.0,19.9,72,30.34,10.0,NE,8.1,-,N/A,,Clear,40,2013-01-15 15:53:00
10:53 AM,30.0,19.9,66,30.26,10.0,North,13.8,-,N/A,,Clear,10,2013-01-15 16:53:00
11:53 AM,30.0,19.0,64,30.32,10.0,NW,6.9,-,N/A,,Overcast,320,2013-01-15 17:53:00
12:53 PM,28.9,21.0,72,30.27,10.0,NNW,11.5,-,N/A,,Overcast,330,2013-01-15 18:53:00
1:53 PM,28.9,21.9,75,30.22,5.0,North,9.2,-,0.00,Snow,Light Snow,10,2013-01-15 19:53:00
2:53 PM,30.0,19.9,66,30.22,10.0,NNE,10.4,-,0.00,,Overcast,30,2013-01-15 20:53:00
3:53 PM,30.0,19.9,66,30.20,10.0,NNE,10.4,-,N/A,,Overcast,20,2013-01-15 21:53:00
4:53 PM,28.9,19.9,69,30.21,10.0,North,11.5,-,N/A,,Overcast,360,2013-01-15 22:53:00
5:53 PM,28.9,21.0,72,30.20,10.0,North,11.5,-,0.00,,Overcast,360,2013-01-15 23:53:00
6:53 PM,28.9,21.0,72,30.19,10.0,North,11.5,-,N/A,,Overcast,350,2013-01-16 00:53:00
7:25 PM,28.4,21.2,74,30.18,10.0,North,12.7,-,N/A,,Overcast,360,2013-01-16 01:25:00
7:53 PM,28.9,21.9,75,30.18,8.0,North,10.4,-,N/A,,Overcast,10,2013-01-16 01:53:00
8:19 PM,28.4,21.2,74,30.18,10.0,North,9.2,-,N/A,,Overcast,10,2013-01-16 02:19:00
8:53 PM,30.0,21.9,72,30.19,10.0,North,10.4,-,N/A,,Overcast,360,2013-01-16 02:53:00
9:53 PM,30.0,21.9,72,30.17,10.0,North,10.4,-,N/A,,Overcast,360,2013-01-16 03:53:00
10:53 PM,30.0,21.9,72,30.15,10.0,North,9.2,-,N/A,,Overcast,10,2013-01-16 04:53:00
11:53 PM,30.0,21.9,72,30.13,10.0,North,8.1,-,N/A,,Overcast,10,2013-01-16 05:53:00